Hourly Data Report for December 07, 2020

L'ASSOMPTION
QUEBEC
Current Station Operator: ECCC - MSC

45°48'34.000" N
73°26'05.000" W
21.00 m
7014160
71524
WEW

Download Data

Hourly Data (December 2020)
Hourly Data Report for December 7, 2020
TIME
LST
Temp Definition
°C
Dew Point Definition
°C
Rel Hum Definition
%
Precip. Amount Definition
mm

Wind Dir Definition
10's deg

Wind Spd Definition
km/h
Visibility Definition
km
Stn Press Definition
kPa
Hmdx Definition


Wind Chill Definition


Weather Definition


00:00 -3.5 -8.7 67 0.0 30 13   100.65   -8 LegendNANA
01:00 -3.6 -8.4 69 0.0 27 10   100.65   -8 LegendNANA
02:00 -3.4 -8.4 68 0.0 27 9   100.66   -7 LegendNANA
03:00 -3.4 -8.5 68 0.0 30 15   100.70   -9 LegendNANA
04:00 -3.8 -8.3 70 0.0 30 14   100.68   -9 LegendNANA
05:00 -3.9 -8.4 71 0.0 30 13   100.69   -9 LegendNANA
06:00 -3.9 -8.4 71 0.0 28 9   100.74   -8 LegendNANA
07:00 -4.0 -7.9 74 0.0 29 9   100.75   -8 LegendNANA
08:00 -4.0 -8.2 72 0.0 30 14   100.75   -9 LegendNANA
09:00 -3.8 -8.5 70 0.0 31 15   100.79   -9 LegendNANA
10:00 -3.6 -9.1 66 0.0 31 17   100.76   -9 LegendNANA
11:00 -3.3 -9.0 65 0.0 31 12   100.70   -8 LegendNANA
12:00 -3.1 -9.1 64 0.0 32 13   100.68   -8 LegendNANA
13:00 -2.8 -9.0 62 0.0 31 11   100.67   -7 LegendNANA
14:00 -2.9 -8.9 63 0.0 30 10   100.68   -7 LegendNANA
15:00 -3.1 -9.2 63 0.0 30 12   100.69   -8 LegendNANA
16:00 -3.1 -8.9 64 0.0 30 7   100.71   -6 LegendNANA
17:00 -3.1 -8.8 65 0.0 28 7   100.73   -6 LegendNANA
18:00 -3.4 -8.7 67 0.0 27 8   100.73   -7 LegendNANA
19:00 -4.4 -8.6 73 0.0 29 7   100.76   -8 LegendNANA
20:00 -4.9 -8.4 76 0.0 31 10   100.82   -9 LegendNANA
21:00 -4.9 -8.8 74 0.0 33 8   100.88   -8 LegendNANA
22:00 -5.1 -8.9 75 0.0 33 8   100.89   -9 LegendNANA
23:00 -5.1 -8.7 76 0.0 34 7   100.88   -8 LegendNANA

Notes on Data Quality.

Legend

  • E = Estimated
  • M = Missing
  • NA = Not Available*
  • [empty] = Indicates an unobserved value
Date modified: